www.pogodaiklimat.ru

Погода и климат >> Архив погоды >> Монголия >> Эрдэни


ПОГОДА в Эрдэни

  • Прогноз погоды в Эрдэни
  • Монитор погоды в Эрдэни

АРХИВ ПОГОДЫ в Эрдэни

Время (UTC), дата Ветер
(напр.,м/с)
 
Видим.   Явления Облачность Т
(С)
Тd
(С)
f
(%)
Тe
(С)
Тes
(С)
Комфортность P
(гПа)
Po
(гПа)
Тmin
(С)
Tmax
(С)
R
(мм)
R24
(мм)
S
(см)
15 18.08 Ю 1 н/о 10/6 1000 м
[Sc As op]
+22.8 +7.8 38 +24 +24 комфорт 1005.2 877.3
18 18.08 З 4 н/о 10/5 1000 м
[Sc As op]
+21.4 +6.1 37 +22 +22 комфорт 1006.3 877.7
21 18.08 З 4 н/о 10/6 1000 м
[Sc As op]
+19.7 +6.4 42 +20 +20 1006.5 877.3
00 19.08 З 7 50 км 10/5 1000 м
[Sc As op]
+18.6 +6.4 45 +18 +18 1008.3 878.3 +18.4
03 19.08 З 9 50 км 1/1 1000 м
[Cu hum]
+24.4 +4.2 27 +24 +25 комфорт 1006.1 878.8
06 19.08 З 13
{18}
50 км 3/3 1000 м
[Cu hum]
+26.1 +3.4 23 +25 +25 комфорт 1005.0 878.5
09 19.08 СЗ 9
{20}
50 км 1/1 1000 м
[Cu hum]
+26.3 +0.8 19 +25 +25 комфорт 1005.0 878.5
12 19.08 СЗ 9
{16}
50 км ясно +24.2 +1.2 22 +23 +23 комфорт 1007.0 879.5 +27.0
15 19.08 З 6 н/о ясно +20.4 +1.3 28 +20 +20 1011.8 882.1
18 19.08 З 4 н/о ясно +17.3 +1.7 35 +17 +17 1014.9 883.5
21 19.08 З 5 н/о ясно +16.7 +0.5 33 +16 +16 1015.5 883.7
00 20.08 СЗ 4 50 км ясно +17.3 +0.9 33 +17 +18 1016.0 884.4 +15.6
03 20.08 З 4 50 км ясно +22.8 -1.7 19 +22 +29 комфорт 1012.8 883.9
06 20.08 Ю 4 50 км 3/0
[Ci]
+26.8 -3.9 13 +24 +34 комфорт 1009.1 882.3
09 20.08 Ю 3 50 км 8/0
[Ac cast Ci]
+27.4 -5.6 11 +24 +28 комфорт 1007.0 880.7
12 20.08 штиль 0 50 км 6/0
[Ac lent Ci]
+26.8 -8.7 9 +24 +24 комфорт 1006.9 880.4 +28.5
15 20.08 В 3 н/о 8/0
[Ac cast Cs]
+22.3 -8.5 12 +20 +20 1009.8 881.1
18 20.08 В 2 н/о 10/0
[As op]
+21.3 -0.1 24 +21 +21 комфорт 1010.3 881.2
21 20.08 В 6 н/о 10/0
[As op]
+20.4 -4.0 19 +20 +20 1011.0 881.4
00 21.08 В 7 50 км 8/0
[Ac cast Cs]
+21.1 -0.2 24 +21 +21 комфорт 1011.5 882.1 +19.5
03 21.08 В 4 50 км 10/0
[As op]
+24.4 0.0 20 +23 +24 комфорт 1010.4 882.5
06 21.08 ЮВ 2 50 км 8/0
[Ac und Ci]
+27.0 +2.1 20 +25 +34 комфорт 1007.6 881.1
09 21.08 ЮЗ 3 50 км 6/0
[Ac trans Cs]
+29.9 +2.2 17 +28 +32 жарко 1004.1 879.1
12 21.08 З 6 50 км 4/0
[Ac lent Cs]
+28.2 +0.8 17 +26 +26 жарко 1004.4 878.7 +30.2
15 21.08 З 2 н/о 5/5 1000 м
[Sc]
+23.5 +1.2 23 +23 +23 комфорт 1008.2 880.2
18 21.08 штиль 0 н/о 10/5 1000 м
[Sc As op]
+21.3 +2.1 28 +21 +21 комфорт 1009.6 880.5
21 21.08 Ю 1 н/о 4/0
[Ac lent Cs]
+19.0 +3.7 36 +20 +20 1010.6 880.4
00 22.08 ЮВ 1 50 км 6/0
[Ac und Ci]
+17.9 +3.0 37 +19 +20 1012.2 881.4 +17.1
03 22.08 З 2 50 км 9/5 1000 м
[Sc Ac und]
+23.9 +2.7 25 +23 +25 комфорт 1009.7 881.6
06 22.08 С 2 50 км 10/6 1000 м
[Sc As op]
+25.7 +2.4 22 +24 +26 комфорт 1008.7 881.5
09 22.08 С 5
{12}
50 км 10/6 1000 м
[Sc As op]
+21.3 +9.2 46 +23 +23 комфорт 1011.1 881.8
12 22.08 штиль 0 50 км 9/5 1000 м
[Sc Ac und]
+22.5 +8.6 41 +24 +24 комфорт 1008.8 880.3 +26.3
15 22.08 З 4 н/о 9/0
[As trans]
+19.8 +9.7 52 +21 +21 комфорт 1010.7 880.9
18 22.08 ЮВ 5 н/о 10/5 1000 м
[Sc As op]
+17.8 +9.4 58 +17 +17 1010.1 879.6
21 22.08 В 2 н/о 10/6 1000 м
[Sc As op]
+17.4 +12.1 71 +18 +18 1010.9 880.0
00 23.08 С 2 50 км 9/4 1000 м
[Sc Ac cast Ci]
+16.9 +10.0 64 +17 +18 1011.8 880.6 +15.5
03 23.08 Ю 3 50 км 3/1 1000 м
[Cu hum Ac cast]
+22.1 +10.6 48 +24 +30 комфорт 1009.4 880.7
06 23.08 В 2 50 км 3/3 1000 м
[Cu med, cong]
+27.9 +7.7 28 +27 +38 жарко 1004.4 878.6
09 23.08 ЮЗ 2 50 км 4/4 1000 м
[Cu med, cong]
+30.7 +6.6 22 +29 +33 жарко 1001.3 877.0
12 23.08 СЗ 3 50 км 5/3 1000 м
[Cu med, cong Ac cast]
+29.0 +5.8 23 +28 +28 жарко 1001.6 876.6 +31.0
15 23.08 З 4
{8}
н/о 3/0
[Ac lent]
+24.7 +3.4 25 +24 +24 комфорт 1005.5 878.4
18 23.08 ЮЗ 2 н/о ясно +18.9 +3.9 37 +20 +20 1009.0 879.0
21 23.08 В 3 н/о 3/0
[Cs]
+16.1 +8.5 61 +16 +16 1011.1 879.7
00 24.08 В 2 50 км 3/0
[Cs]
+16.9 +7.5 54 +17 +18 1011.8 880.6 +14.5
03 24.08 ЮЗ 3 50 км ясно +24.7 +3.9 26 +24 +32 комфорт 1008.4 880.9
06 24.08 СЗ 4 50 км 3/0
[Ci]
+29.9 -6.4 9 +26 +35 жарко 1004.5 879.5
09 24.08 З 10 50 км 3/0
[Ci]
+30.2 +0.7 15 +27 +28 жарко 1002.4 877.8
12 24.08 З 8 50 км ясно +28.0 -3.0 13 +25 +25 комфорт 1003.1 877.6 +31.1
15 24.08 З 3 н/о ясно +21.9 -1.4 21 +21 +21 комфорт 1007.7 879.1
18 24.08 З 5 н/о 3/0
[Ac lent Cs]
+21.2 -1.4 22 +21 +21 комфорт 1008.8 879.8
21 24.08 З 1 н/о 10/0
[As op]
+18.6 -2.4 24 +20 +20 1010.0 879.7
00 25.08 ЮВ 1
{14}
50 км 4/0
[Ac lent Cs]
+16.6 -1.0 30 +18 +19 1012.2 880.9 +14.2
03 25.08 З 5 50 км 10/5 1000 м
[Sc As op]
+22.2 -6.6 14 +21 +21 комфорт 1011.9 882.9
06 25.08 Ю 3 50 км 9/3 1000 м
[Sc Ac trans Ci]
+23.7 +0.7 22 +23 +27 комфорт 1011.5 883.2
09 25.08 Ю 2 50 км 3/3 1000 м
[Cu hum]
+25.2 -1.6 17 +23 +28 комфорт 1001.3 881.8
12 25.08 штиль 0 50 км ясно +24.9 -2.6 16 +23 +23 комфорт 1009.3 881.8 +27.2

 

Местоположение метеостанции Эрдэни (Монголия): широта 45.15 долгота 97.77 высота над уровнем моря 2417 м.

В архиве по умолчанию представлена погода в Эрдэни за последнюю неделю. Архивные данные за месяц целиком и за предыдущие месяцы, начиная с января 2011 года, Вы можете получить, выбрав интересующий диапазон дат из раскрывающегося списка и нажав кнопку "Ввод!".


*Определитесь, кто Вы:
робот инопланетянин человек

Внимание! Время в таблицах - всемирное. Для получения местного времени необходимо прибавить поправку, которая равна 8 ч.

Смотрите также архив погоды в соседних городах и на ближайших метеорологических станциях:

Погода в Амарбуйантайане (Монголия) (94 км)
Погода в Алтае (Монголия) (182 км)
Погода в Баянбулаге (Монголия) (188 км)
Погода в Галууте (Монголия) (251 км)
Погода в Баянхонгоре (Монголия) (251 км)
Погода в Наомаоху (Синьцзян-Уйгурский автономный район, Китай) (272 км)
Погода в Улиастае (Монголия) (298 км)
Погода в Шинэ Уса (Монголия) (317 км)
Погода в Тонхиле (Монголия) (327 км)
Погода в Богде (Монголия) (350 км)

Пояснения к столбцам:

Ветер - указаны скорость ветра в м/с - средняя за 10 мин, порывы в срок и между сроками (в фигурных скобках) и направление, откуда дует ветер: С - северный, СВ - северо-восточный, В - восточный, ЮВ - юго-восточный, Ю - южный, ЮЗ - юго-западный, З - западный, СЗ - северо-западный.
Видимость - горизонтальная дальность видимости в метрах или километрах. При видимости от 1 до 10 км при отсутствии осадков обычно наблюдается дымка, при ухудшении видимости до 1 км и менее - туман. В сухую погоду видимость может ухудшаться дымом, пылью или мглою.
Явления - указаны атмосферные явления, наблюдавшиеся в срок или в последний час перед сроком; фигурными скобками обозначены явления, наблюдавшиеся между сроками (за 1-3 часа до срока); квадратными скобками обозначены град или гололедные отложения с указанием их диаметра в мм.
Облачность - указаны через наклонную черту общая и нижняя облачность в баллах и высота нижней границы облаков в метрах; квадратными скобками обозначены формы облаков: Ci - перистые, Cs - перисто-слоистые, Cc - перисто-кучевые, Ac - высококучевые, As - высокослоистые, Sc - слоисто-кучевые, Ns - слоисто-дождевые, Cu - кучевые, Cb - кучево-дождевые. Подробнее классификацию облаков см. в Атласе облаков (PDF).
T - Температура воздуха - температура, измеренная на высоте 2 м над землей.
Td - Температура точки росы - температура, при понижении до которой содержащийся в воздухе водяной пар достигнет насыщения.
f - Относительная влажность воздуха - влажноcть воздуха, измеренная на высоте 2 м над землей.
Te - Эффективная температура - температура, которую ощущает одетый по сезону человек в тени. Характеристика душности погоды. При расчете учитывается влияние влажности воздуха и скорости ветра на теплоощущения человека.
Tes - Эффективная температура на солнце - температура, которую ощущает человек, с поправкой на солнечный нагрев. Характеристика знойности погоды. Зависит от высоты солнца над горизонтом, облачности и скорости ветра. Ночью, в пасмурную погоду, а также при ветре 12 м/с и более поправка равна нулю.
P - Атмосферное давление - приведенное к уровню моря атмосферное давление.
Po - Атмосферное давление - измеренное на уровне метеостанции атмосферное давление.
Tmin - Минимальная температура - минимум температуры воздуха на высоте 2 м над землей.
Tmax - Максимальная температура - максимум температуры воздуха на высоте 2 м над землей.
R - Количество осадков - Количество выпавших осадков за период времени, мм. При наведении курсора мыши на число - период времени, за который выпало указанное количество осадков.
R24 - Количество осадков - Количество выпавших осадков за 24 часа, мм.
S - Снежный покров - Высота снежного покрова, см. При наведении курсора мыши на число - состояние снежного покрова и степень покрытия местности в баллах.